Preview of NWS' New Version of Forecast
This preview is not operational and should not be used for support decisions.

Regional Weather Roundup (RWR)

Issued by National Weather Service (NWS)

                            
000
ASUS45 KCYS 252210
RWRWY 

WYOMING REGIONAL WEATHER ROUNDUP
NATIONAL WEATHER SERVICE CHEYENNE WY
400 PM MDT TUE JUN 25 2019

NOTE:  "FAIR" INDICATES FEW OR NO CLOUDS BELOW 12,000 FEET
WITH NO SIGNIFICANT WEATHER AND/OR OBSTRUCTIONS TO VISIBILITY.

WYZ001-252300-
YELLOWSTONE NATIONAL PARK
  
CITY           SKY/WX    TMP DP  RH WIND       PRES   REMARKS
LK YELLOWSTONE   N/A     64  35  34 SW9       30.05S                  
W YELLOWSTONE  NOT AVBL                                               

$$
WYZ002>013-054>058-071-098>099-252300-
NORTHERN WYOMING
  
CITY           SKY/WX    TMP DP  RH WIND       PRES   REMARKS
JACKSON        FAIR      73  37  27 SW15G21   29.96S                  
CODY           FAIR      73  41  31 SE12      29.88F                  
GREYBULL       FAIR      81  38  21 N9        29.80F                  
WORLAND        FAIR      81  43  26 N8        29.80F                  
SHERIDAN       FAIR      82  49  31 N6        29.82F                  
BUFFALO        PTSUNNY   72  47  40 NW3       29.90F                  
GILLETTE       FAIR      77  46  33 SW13      29.87F                  
HULETT         FAIR      75  41  29 CALM      29.92                   
NEWCASTLE      FAIR      73  45  35 S10       29.94                   

$$
WYZ014>020-022>026-101>103-252300-
CENTRAL WYOMING
  
CITY           SKY/WX    TMP DP  RH WIND       PRES   REMARKS
BIG PINEY      FAIR      76  30  18 W21G33    30.04R                  
PINEDALE       FAIR      72  25  17 W15G25    30.05                   
DUBOIS         FAIR      73  23  15 W30G36    29.97                   
LANDER         FAIR      82  31  15 W10G21    29.86F                  
RIVERTON       FAIR      83  37  19 SW13G21   29.87F                  
CASPER         FAIR      81  39  22 S13G20    29.89F                  
DOUGLAS        FAIR      81  44  27 E8        29.92F                  

$$
WYZ021-027>030-104>119-252300-
SOUTHERN WYOMING
  
CITY           SKY/WX    TMP DP  RH WIND       PRES   REMARKS
EVANSTON       FAIR      74  32  21 SW22G29   30.05S                  
KEMMERER       FAIR      75  28  17 SW25G36   30.05                   
FORT BRIDGER   MOCLDY    79  30  17 W22G29    30.07                   
ROCK SPRINGS   FAIR      72  28  19 SW5       30.03S                  
DIXON          FAIR      80  27  14 SW15G30   30.06F                  
RAWLINS        TSTM      61  43  51 SW12G36   30.07R                  
SARATOGA       FAIR      75  28  17 SW18G30   30.06F                  
LARAMIE        NOT AVBL                                               
CHEYENNE       FAIR      74  43  32 SE13      30.06S                  
TORRINGTON     FAIR      79  48  33 E16       29.87F                  
PINE BLUFFS    FAIR      77  41  27 S10       30.01S                  

$$